Location: São Paulo
(23.5507°S, 46.6334°W)
Time: 18:03:16
(UTC-03:00)

A-11 Canister half - Pass Details

Date: 15 February 2026
Orbit: 1524 x 1683 km, 47.3° (Epoch: 13 March)

Event Time Altitude Azimuth Distance (km) Brightness Sun altitude
Exits shadow 02:13:46 28° 66° (ENE) 2,725 10.3 -44.4°
Drops below altitude 10° 02:20:42 10° 109° (ESE) 3,935 11.6 -43.4°
Sets 02:24:27 0° 119° (ESE) 4,939 12.4 -42.8°
